Location: Strada George Coșbuc
(47.6577°N, 23.5639°E)
Time: 01:20:24
(UTC+03:00)

ISS - Pass Details

Date: 29 September 2017
Orbit: 401 x 407 km, 51.6° (Epoch: 23 September)

Event Time Altitude Azimuth Distance (km) Brightness Sun altitude
Rises 22:02:16 0° 273° (W) 2,321 0.9 -28.8°
Reaches altitude 10° 22:04:25 10° 281° (WNW) 1,462 -0.2 -29.1°
Enters shadow 22:05:06 15° 286° (WNW) 1,208 -0.7 -29.2°
